EB2EMZ-14 Weather Reports


time (UTC)temp
C
wind
direction
speed
KPH
gust
KPH
rain 1hr
cm
rain 24hr
cm
rain mn
cm
humidity
%
barometer
mb
20260504035506 10 45 0.0 0.0 0.00 0.30 0.00 90 1011.1
20260504035006 10 45 0.0 0.0 0.00 0.30 0.00 90 1011.1
20260504034506 10 45 0.0 0.0 0.00 0.30 0.00 90 1011.0
20260504034006 10 45 0.0 0.0 0.00 0.30 0.00 90 1011.0
20260504033506 10 45 0.0 0.0 0.00 0.30 0.00 90 1011.2
20260504033006 10 45 0.0 0.0 0.00 0.30 0.00 90 1011.1
20260504032506 10 45 0.0 0.0 0.00 0.30 0.00 90 1011.2
20260504032007 10 45 0.0 0.0 0.00 0.30 0.00 90 1011.2
20260504031506 10 45 0.0 0.0 0.00 0.30 0.00 90 1011.5
20260504031006 10 45 0.0 0.0 0.00 0.30 0.00 90 1011.5
20260504030506 10 45 0.0 0.0 0.00 0.30 0.00 90 1011.4
20260504030006 10 45 0.0 0.0 0.00 0.30 0.00 90 1011.4
20260504025506 10 349 0.0 0.0 0.00 0.30 0.00 90 1011.3
20260504025007 10 270 0.0 0.0 0.00 0.30 0.00 90 1011.4
20260504024507 10 270 0.0 0.0 0.00 0.30 0.00 90 1011.5
20260504024006 10 270 0.0 0.0 0.00 0.30 0.00 90 1011.4
20260504023507 10 270 0.0 0.0 0.00 0.30 0.00 90 1011.4
20260504023006 10 270 0.0 0.0 0.00 0.30 0.00 90 1011.4
20260504022506 10 180 0.0 0.0 0.00 0.30 0.00 90 1011.4
20260504022006 10 180 0.0 0.0 0.00 0.30 0.00 90 1011.4
20260504021506 10 45 0.0 0.0 0.00 0.30 0.00 90 1011.4
20260504021008 10 22 0.0 0.0 0.00 0.30 0.00 90 1011.3
20260504020506 10 22 0.0 0.0 0.00 0.30 0.00 90 1011.2
20260504020006 10 22 0.0 0.0 0.00 0.30 0.00 90 1011.2
20260504015506 10 22 0.0 0.0 0.00 0.30 0.00 90 1011.3
20260504015006 10 22 0.0 0.0 0.00 0.30 0.00 90 1011.4
20260504014506 10 90 0.0 0.0 0.00 0.30 0.00 90 1011.3
20260504014006 10 112 0.0 0.0 0.00 0.30 0.00 90 1011.5
20260504013506 10 265 0.0 0.0 0.00 0.30 0.00 90 1011.4
20260504013006 10 270 0.0 0.0 0.00 0.30 0.00 90 1011.3
20260504012506 10 343 0.0 0.0 0.00 0.30 0.00 90 1011.2
20260504012005 10 339 0.0 0.0 0.00 0.30 0.00 90 1011.2
20260504011506 10 338 0.0 0.0 0.00 0.30 0.00 90 1011.3
20260504011007 10 330 0.0 0.0 0.00 0.30 0.00 90 1011.4
20260504010506 10 315 0.0 0.0 0.00 0.30 0.00 90 1011.3
20260504010005 10 315 0.0 0.0 0.00 0.30 0.00 90 1011.4
20260504005506 10 352 0.0 0.0 0.00 0.30 0.00 90 1011.5
20260504005007 10 317 0.0 0.0 0.00 0.30 0.00 90 1011.4
20260504004507 10 315 0.0 0.0 0.00 0.30 0.00 90 1011.4
20260504004006 10 302 0.0 0.0 0.00 0.30 0.00 90 1011.3
20260504003505 10 22 0.0 4.8 0.00 0.30 0.00 90 1011.4
20260504003006 10 32 0.0 4.8 0.00 0.30 0.00 90 1011.4
20260504002505 10 0 0.0 0.0 0.00 0.30 0.00 90 1011.5
20260504002005 10 338 0.0 0.0 0.00 0.30 0.00 90 1011.5
20260504001505 10 338 0.0 0.0 0.00 0.30 0.00 90 1011.4
20260504001006 10 0 0.0 0.0 0.00 0.30 0.00 90 1011.4
20260504000507 10 8 0.0 0.0 0.00 0.30 0.00 90 1011.6
20260504000007 10 338 0.0 0.0 0.00 0.30 0.00 90 1011.5
20260503235511 10 338 0.0 0.0 0.00 0.30 0.00 90 1011.5
20260503235006 10 22 0.0 0.0 0.00 0.30 0.00 90 1011.5
20260503234505 10 45 0.0 0.0 0.00 0.30 0.00 90 1011.6
20260503234006 10 135 0.0 0.0 0.00 0.30 0.00 90 1011.7
20260503233507 10 68 0.0 0.0 0.00 0.30 0.00 90 1011.7
20260503233006 10 0 0.0 0.0 0.00 0.30 0.00 90 1011.6
20260503232508 10 16 0.0 0.0 0.00 0.30 0.00 90 1011.9
20260503232006 10 0 0.0 0.0 0.00 0.30 0.00 90 1011.9
20260503231507 10 0 0.0 0.0 0.00 0.30 0.00 90 1011.8
20260503231007 10 0 0.0 0.0 0.00 0.30 0.00 90 1012.0
20260503230507 10 0 0.0 0.0 0.00 0.30 0.00 89 1012.0
20260503230019 10 45 0.0 0.0 0.00 0.30 0.00 89 1012.0
20260503225519 10 292 0.0 0.0 0.15 0.30 0.00 89 1011.9
20260503225020 10 292 0.0 0.0 0.15 0.30 0.00 89 1011.8
20260503224519 10 270 0.0 0.0 0.15 0.30 0.00 89 1012.0
20260503224020 10 270 0.0 0.0 0.15 0.30 0.00 88 1012.0
20260503223519 10 270 0.0 0.0 0.20 0.30 0.00 88 1012.0
20260503223018 10 282 0.0 0.0 0.20 0.30 0.00 88 1011.8
20260503222519 10 135 0.0 0.0 0.20 0.30 0.00 88 1011.9
20260503222020 10 45 0.0 0.0 0.20 0.30 0.00 88 1011.8
20260503221520 10 45 0.0 0.0 0.20 0.30 0.00 88 1011.8
20260503221019 10 309 0.0 3.2 0.20 0.30 0.00 88 1011.7
20260503220518 11 0 0.0 3.2 0.20 0.30 0.00 89 1011.6
20260503220020 11 0 0.0 4.8 0.20 0.30 0.00 89 1011.5
20260503215518 11 39 1.6 8.0 0.10 0.20 0.20 89 1011.5
20260503214518 11 112 0.0 0.0 0.05 0.15 0.15 88 1011.2
20260503214018 11 112 0.0 0.0 0.05 0.15 0.15 88 1011.4
20260503213518 11 112 0.0 0.0 0.00 0.10 0.10 88 1011.2
20260503213019 11 112 0.0 0.0 0.00 0.10 0.10 88 1011.3
20260503212519 11 112 0.0 0.0 0.00 0.10 0.10 88 1011.2
20260503212018 11 112 0.0 0.0 0.00 0.10 0.10 88 1011.2
20260503211518 11 112 0.0 0.0 0.00 0.10 0.10 88 1011.2
20260503211018 11 112 0.0 0.0 0.00 0.10 0.10 88 1011.0
20260503210518 11 112 0.0 0.0 0.00 0.10 0.10 87 1010.9
20260503210018 11 112 0.0 0.0 0.00 0.10 0.10 87 1010.9
20260503205517 11 112 0.0 0.0 0.00 0.10 0.10 87 1010.9
20260503205019 11 112 0.0 0.0 0.00 0.10 0.10 87 1010.8
20260503204518 11 112 0.0 0.0 0.00 0.10 0.10 87 1010.8
20260503204018 11 112 0.0 0.0 0.00 0.10 0.10 87 1010.5
20260503203518 11 112 0.0 0.0 0.00 0.10 0.10 86 1010.6
20260503203018 11 135 0.0 0.0 0.00 0.10 0.10 86 1010.7
20260503202518 11 135 0.0 0.0 0.00 0.10 0.10 86 1010.6
20260503202018 11 135 0.0 0.0 0.00 0.10 0.10 85 1010.4
20260503201518 11 135 0.0 0.0 0.00 0.10 0.10 85 1010.3
20260503201020 11 135 0.0 0.0 0.00 0.10 0.10 85 1010.5
20260503200518 11 135 0.0 0.0 0.00 0.10 0.10 85 1010.6
20260503200018 11 112 0.0 0.0 0.00 0.10 0.10 84 1010.5
20260503195518 11 135 0.0 0.0 0.00 0.10 0.10 84 1010.4
20260503195018 12 112 0.0 0.0 0.00 0.10 0.10 84 1010.4
20260503194518 12 90 0.0 0.0 0.00 0.10 0.10 84 1010.2
20260503194018 12 90 0.0 0.0 0.00 0.10 0.10 84 1010.5
20260503193519 12 45 0.0 0.0 0.00 0.10 0.10 84 1010.4
20260503193018 12 45 0.0 0.0 0.00 0.10 0.10 83 1010.4
20260503192517 12 45 0.0 0.0 0.00 0.10 0.10 83 1010.4
20260503192018 12 45 0.0 0.0 0.00 0.10 0.10 83 1010.3
20260503191518 12 45 0.0 0.0 0.00 0.10 0.10 82 1010.4
20260503191018 12 45 0.0 0.0 0.00 0.10 0.10 82 1010.4
20260503190517 12 45 0.0 0.0 0.00 0.10 0.10 81 1010.3
20260503190017 13 45 0.0 0.0 0.00 0.10 0.10 81 1010.1
20260503185518 13 45 0.0 0.0 0.00 0.10 0.10 82 1010.1
20260503185019 13 45 0.0 0.0 0.00 0.10 0.10 81 1010.0
20260503184519 13 45 0.0 0.0 0.00 0.10 0.10 81 1009.9
20260503184019 13 51 0.0 0.0 0.00 0.10 0.10 81 1009.7
20260503183519 13 68 0.0 0.0 0.00 0.10 0.10 81 1009.8
20260503183018 13 68 0.0 0.0 0.00 0.10 0.10 81 1009.7
20260503182519 13 133 0.0 0.0 0.00 0.10 0.10 81 1009.7
20260503182018 13 135 0.0 0.0 0.00 0.10 0.10 81 1009.6
20260503181518 13 135 0.0 0.0 0.00 0.10 0.10 81 1009.6
20260503181017 13 135 0.0 3.2 0.00 0.10 0.10 81 1009.6
20260503180517 13 90 1.6 4.8 0.00 0.10 0.10 81 1009.6
20260503180017 13 105 0.0 0.0 0.00 0.10 0.10 81 1009.7
20260503175519 13 66 0.0 0.0 0.00 0.10 0.10 82 1009.8
20260503175018 13 77 0.0 1.6 0.00 0.10 0.10 81 1009.9
20260503174518 13 90 1.6 3.2 0.00 0.15 0.10 81 1009.9
20260503174018 13 135 0.0 3.2 0.00 0.15 0.10 81 1010.1
20260503173518 13 90 0.0 3.2 0.00 0.20 0.10 81 1009.9
20260503173018 13 158 0.0 3.2 0.00 0.25 0.10 81 1009.9
20260503172518 13 112 1.6 9.7 0.00 0.30 0.10 80 1009.8
20260503172017 12 79 1.6 9.7 0.00 0.30 0.10 80 1010.0
20260503171518 12 135 0.0 0.0 0.00 0.36 0.10 79 1010.1
20260503171018 12 135 0.0 0.0 0.00 0.36 0.10 79 1010.1
20260503170519 13 90 0.0 3.2 0.00 0.36 0.10 78 1009.9
20260503150519 19 81 3.2 8.0 0.00 0.25 0.00 61 1009.7
20260503131017 20 63 0.0 9.7 0.00 0.81 0.00 62 1011.2
20260503130518 20 90 1.6 11.3 0.00 0.81 0.00 63 1011.4
20260503110520 20 165 1.6 9.7 0.00 0.81 0.00 63 1012.4
20260503081517 26 135 4.8 9.7 0.00 0.81 0.00 55 1012.4
20260503081017 26 194 1.6 8.0 0.00 0.81 0.00 57 1012.3
20260503080516 25 179 0.0 11.3 0.00 0.81 0.00 62 1012.4
20260503072517 15 202 1.6 4.8 0.00 0.81 0.00 86 1012.5
20260503072017 16 202 0.0 4.8 0.00 0.81 0.00 87 1012.6
20260503071518 16 135 1.6 8.0 0.00 0.81 0.00 88 1012.6
20260503071018 16 268 0.0 0.0 0.00 0.81 0.00 89 1012.5
20260503070518 16 164 1.6 8.0 0.00 0.81 0.00 92 1012.4
20260503055017 10 340 0.0 0.0 0.00 0.81 0.00 93 1012.5
20260503054516 10 338 0.0 0.0 0.00 0.81 0.00 93 1012.4
20260503054018 10 338 0.0 0.0 0.00 0.81 0.00 93 1012.3
20260503053517 10 338 0.0 0.0 0.00 0.81 0.00 93 1012.2
20260503053017 10 338 0.0 0.0 0.00 0.81 0.00 92 1012.1
20260503052517 9 338 0.0 3.2 0.00 0.81 0.00 92 1012.1
20260503052017 9 251 0.0 0.0 0.00 0.81 0.00 92 1012.1
20260503051517 9 248 0.0 0.0 0.00 0.81 0.00 92 1012.0
20260503051017 9 248 0.0 0.0 0.00 0.81 0.00 92 1011.9
20260503050517 9 248 0.0 0.0 0.00 0.81 0.00 92 1011.8
20260503050018 9 248 0.0 0.0 0.00 0.81 0.00 92 1011.9
20260503045517 9 248 0.0 0.0 0.00 0.81 0.00 92 1012.0
20260503045017 10 248 0.0 0.0 0.00 0.81 0.00 92 1011.8
20260503044517 10 248 0.0 0.0 0.00 0.81 0.00 92 1011.9
20260503044016 10 248 0.0 0.0 0.00 0.81 0.00 92 1012.0
20260503043517 10 248 0.0 4.8 0.00 0.81 0.00 93 1012.1
20260503043017 10 264 0.0 0.0 0.00 0.81 0.00 93 1012.1
20260503042518 10 202 0.0 0.0 0.00 0.81 0.00 93 1012.2
20260503042016 10 180 0.0 0.0 0.00 0.81 0.00 92 1012.1
20260503041517 10 202 0.0 0.0 0.00 0.81 0.00 92 1012.0
20260503041016 10 225 0.0 0.0 0.00 0.81 0.00 92 1012.2
20260503040517 10 182 0.0 0.0 0.00 0.81 0.00 92 1012.3
20260503040017 10 180 0.0 1.6 0.00 0.81 0.00 92 1012.1